Regional Weather Roundup
Issued by NWS

Home | Current Version | Previous Version | Text Only | Print | Product List | Glossary Off
Versions: 1 2 3 4 5 6 7 8 9 10 11 12 13 14 15 16 17 18 19 20 21 22 23 24 25 26 27 28 29 30 31 32 33 34 35 36 37 38 39 40 41 42 43 44 45 46 47 48 49 50

000
ASUS43 KMKX 230721
RWRWI

WISCONSIN REGIONAL WEATHER ROUNDUP
NATIONAL WEATHER SERVICE MILWAUKEE/SULLIVAN WI
200 AM CDT THU MAR 23 2017

NOTE: "FAIR" INDICATES FEW OR NO CLOUDS BELOW 12,000 FEET WITH NO
SIGNIFICANT WEATHER AND/OR OBSTRUCTIONS TO VISIBILITY.

WIZ001-002-006>008-014>016-023>028-230800-
NORTHWEST WISCONSIN

CITY           SKY/WX    TMP DP  RH WIND       PRES   REMARKS
SUPERIOR ARPT  CLOUDY    32  19  59 CALM      30.28S
ASHLAND        CLOUDY    28  21  75 CALM      30.31F
HAYWARD        LGT SNOW  31  21  66 S9        30.29F WCI  23
SIREN          CLOUDY    34  12  40 S7        30.27S WCI  28
CUMBERLAND     CLOUDY    32  16  51 SE10      30.27F WCI  24
RICE LAKE      CLOUDY    33  17  51 CALM      30.30F
CHETEK         CLOUDY    33  17  51 SE7       30.30F WCI  27
LADYSMITH      CLOUDY    32  18  54 SE8       30.33F WCI  25
EAU CLAIRE     CLOUDY    34  14  43 SE12      30.30F WCI  25
MENOMONIE      CLOUDY    34  16  46 SE9       30.30S WCI  27
NEW RICHMOND   CLOUDY    35  12  39 SE8       30.27F WCI  28
OSCEOLA        CLOUDY    36  14  40 SE8G16    30.29F WCI  29
$$

WIZ003>005-009-010-017-018-230800-
NORTH CENTRAL WISCONSIN

CITY           SKY/WX    TMP DP  RH WIND       PRES   REMARKS
MANITOWISH WTR CLOUDY    27  12  53 S8        30.32S WCI  19
ARBOR VITAE    CLOUDY    29  16  57 S8        30.32S WCI  21
WOODRUFF       CLOUDY    29  16  57 S8        30.32S WCI  21
RHINELANDER    CLOUDY    28  15  58 S6        30.35F WCI  22
EAGLE RIVER    CLOUDY    25  11  56 S8        30.34S WCI  16
LAND O LAKES   CLOUDY    27  12  53 S5        30.34F WCI  21
PHILLIPS       CLOUDY    29  16  57 SE8       30.31F WCI  21
TOMAHAWK       CLOUDY    27  16  63 CALM      30.35S
MEDFORD        CLOUDY    28  18  66 SE9       30.33F WCI  19
MERRILL        CLOUDY    28  18  68 S6        30.38R WCI  21
$$

WIZ029-030-035-036-043>047-230800-
CENTRAL WISCONSIN

CITY           SKY/WX    TMP DP  RH WIND       PRES   REMARKS
WAUSAU         CLOUDY    27  19  72 SE10      30.37F WCI  17
MOSINEE        CLOUDY    27  21  80 SE8       30.39S WCI  18
MARSHFIELD     CLOUDY    29  19  66 SE10      30.36R WCI  20
STEVENS POINT  MOCLDY    24  19  79 SE6       30.41R WCI  17
WAUPACA        CLOUDY    27  22  80 CALM      30.44R
WAUTOMA        MOCLDY    24  20  84 SE5       30.43R WCI  18
WISC RAPIDS    CLOUDY    28  20  71 SE8       30.41R WCI  20
CAMP DOUGLAS   CLOUDY    31  21  65 SE12      30.37F WCI  22
$$

WIZ011>013-019>022-031-037>040-048>050-230800-
NORTHEAST WISCONSIN

CITY           SKY/WX    TMP DP  RH WIND       PRES   REMARKS
ANTIGO         CLOUDY    23  19  85 SE9       30.37F WCI  13
SHAWANO        CLOUDY    25  19  80 CALM      30.44S
OCONTO         PTCLDY    24  18  79 S5        30.44F WCI  18
STURGEON BAY   CLEAR     25  19  78 SE6       30.45F WCI  18
GREEN BAY      CLOUDY    24  20  84 SE6       30.44F WCI  17
MANITOWOC      CLOUDY    26  21  81 SE8       30.46F WCI  18
APPLETON       CLOUDY    25  18  74 SE7       30.41F WCI  17
CLINTONVILLE   CLOUDY    27  19  74 S3        30.43S
OSHKOSH        CLOUDY    25  19  78 SE7       30.42F WCI  17
$$

WIZ032>034-041-042-053>061-230800-
SOUTHWEST WISCONSIN

CITY           SKY/WX    TMP DP  RH WIND       PRES   REMARKS
LA CROSSE      CLOUDY    38  19  46 SE14      30.33F WCI  30
SPARTA         CLOUDY    34  19  55 SE7       30.36F WCI  28
VIROQUA        CLOUDY    33  21  61 SE12      30.32F WCI  24
BOSCOBEL       CLOUDY    35  20  54 SE5       30.39S WCI  31
PRAIRIE DU CHI CLOUDY    38  19  48 SE9G17    30.34F WCI  31
PLATTEVILLE    CLOUDY    32  22  65 SE10      30.37S WCI  24
$$

WIZ056-057-062-063-064-067-068-230800-
SOUTH CENTRAL WISCONSIN

CITY           SKY/WX    TMP DP  RH WIND       PRES   REMARKS
REEDSBURG      CLOUDY    30  20  67 SE7       30.39S WCI  23
BARABOO/DELLS  CLOUDY    28  21  72 SE9       30.39F WCI  20
LONE ROCK      CLOUDY    31  18  58 SE13      30.40F WCI  21
MINERAL POINT  CLOUDY    32  21  64 SE13      30.36S WCI  22
MADISON        CLOUDY    27  18  69 SE8       30.41F WCI  19
MIDDLETON      CLOUDY    29  21  70 SE6       30.41F WCI  23
WATERTOWN      CLOUDY    24  20  83 SE6       30.43F WCI  17
MONROE         CLOUDY    28  19  69 E9        30.39F WCI  20
JANESVILLE     CLOUDY    28  21  74 SE5       30.42F WCI  23
$$

WIZ051-052-058>065-066-070>072-230800-
SOUTHEAST WISCONSIN

CITY           SKY/WX    TMP DP  RH WIND       PRES   REMARKS
MILWAUKEE      CLOUDY    28  18  66 SE3       30.46F
WAUKESHA       CLOUDY    23  18  80 CALM      30.45F
MILWAUKEE/TIMM CLOUDY    25  18  74 CALM      30.46F
RACINE         CLOUDY    30  22  72 SE6       30.47F WCI  24
KENOSHA        CLEAR     23  20  88 E3        30.45F
FOND DU LAC    CLOUDY    26  18  71 SE10      30.42F WCI  16
SHEBOYGAN      CLEAR     25  19  78 SE5       30.45F WCI  19
WEST BEND      CLOUDY    21  21 100 CALM      30.44F
JUNEAU         CLOUDY    24  19  80 SE6       30.44S WCI  17
$$

LSZ147-162-230800-
LAKE SUPERIOR

STATION/POSITION TIME  TEMP    WIND        PRES    WAVE
                       AIR SEA DIR/SP/G            HT/PER
                 (UTC) (F)     (DEG/KT/KT) (MB)    (FT/S)
DEVILS ISLAND    0700   32     160/  8/ 11 1027.4F
PORT WING        0640   33     140/  3/  9 1025.7F
SAXON HARBOR     0640   34     180/  6/ 11 1026.4S
$$

LMZ867-665-643>646-230800-
LAKE MICHIGAN

STATION/POSITION TIME  TEMP    WIND        PRES    WAVE
                       AIR SEA DIR/SP/G            HT/PER
                 (UTC) (F)     (DEG/KT/KT) (MB)    (FT/S)
CHAMBERS ISLAND  0640   25     150/  3/  6 1030.8F
NORTHPORT PIER   0702   26      CALM  /  3 1031.2
SISTER BAY       0535   24     160/  6/  8   N/A
KEWAUNEE LAKESHO 0654   29     160/ 11/ 14 1030.9F
SHEBOYGAN LAKESH 0700   30     140/ 13/ 14 1032.1F
PORT WASHINGTON  0630   32     150/  9/ 12 1032.5F
MILWAUKEE LAKESH 0650   32     130/ 11/ 12   N/A
KENOSHA   LAKESH 0700   33     130/ 10/ 13 1031.2
$$

TC  - TEMPERATURE IN CELSIUS
VSB - VISIBILITY IN STATUTE MILES
WCI - WIND CHILL INDEX
HX  - HEAT INDEX





USA.gov is the U.S. government's official web portal to all federal, state and local government web resources and services.